Simultaneous Nadir Overpasses (SNOs) Predictions

Prediction of SNOs between FY3D and NOAA-19 Satellite Orbit:

Table of predicted SNOs for the next 14.0 days since TLE Epoch: 10/28/2023
Index Date (FY3D) Time (FY3D) Lat,Lon (FY3D) SZA (FY3D ) Date (NOAA-19) Time (NOAA-19) Lat,Lon (NOAA-19) SZA (NOAA-19 ) Distance(km) Time Diff (sec)
1 11/09/2023 13:26:33 -76.13, 153.20 87.07 11/09/2023 13:25:21 -76.12, 151.93 87.07 33.91 72
2 11/09/2023 14:17:23 76.30, -40.10 93.12 11/09/2023 14:16:20 76.33, -40.04 93.15 3.31 63
3 11/09/2023 15:08:08 -76.30, 127.21 86.88 11/09/2023 15:07:15 -76.32, 127.22 86.85 2.44 53
4 11/09/2023 15:58:55 76.33, -65.61 93.18 11/09/2023 15:58:19 76.31, -65.59 93.15 2.55 36
5 11/09/2023 16:49:40 -76.33, 101.71 86.82 11/09/2023 16:49:14 -76.31, 101.67 86.85 3.07 26
6 11/09/2023 17:40:26 76.32, -90.95 93.18 11/09/2023 17:40:17 76.34, -90.96 93.20 2.06 9
7 11/09/2023 18:31:11 -76.32, 76.37 86.81 11/09/2023 18:31:12 -76.34, 76.29 86.80 2.54 1
8 11/09/2023 19:21:58 76.36,-116.45 93.24 11/09/2023 19:22:15 76.37,-116.34 93.25 3.26 17
9 11/09/2023 20:12:43 -76.36, 50.86 86.76 11/09/2023 20:13:10 -76.37, 50.91 86.75 1.71 27
10 11/09/2023 21:03:29 76.35,-141.79 93.25 11/09/2023 21:04:14 76.36,-141.89 93.26 2.81 45
11 11/09/2023 21:54:14 -76.35, 25.52 86.75 11/09/2023 21:55:09 -76.35, 25.37 86.74 4.17 55
12 11/09/2023 22:45:01 76.38,-167.30 93.30 11/09/2023 22:46:12 76.39,-167.27 93.31 1.03 71
13 11/09/2023 23:35:52 -76.65, -1.00 86.42 11/09/2023 23:37:02 -76.60, 0.85 86.48 47.92 70



Historial Predications of SNOs between FY3D and NOAA-19
